Time,TemperatureF,DewpointF,PressureIn,WindDirection,WindDirectionDegrees,WindSpeedMPH,WindSpeedGustMPH,Humidity,HourlyPrecipIn,Conditions,Clouds,dailyrainin,SolarRadiationWatts/m^2,SoftwareType,DateUTC
2013-04-15 00:02:00,28.0,23.0,-100.00,NNW,327,6.0,12.0,82,0.00,,,0.01,0.000000,,2013-04-15 07:02:00,
2013-04-15 00:53:00,28.0,24.0,-100.00,NNW,330,6.0,10.0,83,0.00,,,0.01,0.000000,,2013-04-15 07:53:00,
2013-04-15 01:02:00,28.0,24.0,-100.00,NNW,330,6.0,10.0,83,0.00,,,0.01,0.000000,,2013-04-15 08:02:00,
2013-04-15 01:12:00,28.0,24.0,-100.00,NNW,330,6.0,10.0,83,0.00,,,0.01,0.000000,,2013-04-15 08:12:00,
2013-04-15 01:22:00,28.0,24.0,-100.00,NNW,330,6.0,10.0,83,0.00,,,0.01,0.000000,,2013-04-15 08:22:00,
2013-04-15 01:32:00,28.0,24.0,-100.00,NNW,330,6.0,10.0,83,0.00,,,0.01,0.000000,,2013-04-15 08:32:00,
2013-04-15 01:52:00,28.0,23.0,-100.00,NNW,328,7.0,11.0,82,0.00,,,0.01,0.000000,,2013-04-15 08:52:00,
2013-04-15 02:02:00,28.0,23.0,-100.00,NNW,328,7.0,11.0,82,0.00,,,0.01,0.000000,,2013-04-15 09:02:00,
2013-04-15 02:12:00,28.0,23.0,-100.00,NNW,328,7.0,11.0,82,0.00,,,0.01,0.000000,,2013-04-15 09:12:00,
2013-04-15 02:22:00,28.0,23.0,-100.00,NNW,328,7.0,11.0,82,0.00,,,0.01,0.000000,,2013-04-15 09:22:00,
2013-04-15 02:32:00,28.0,23.0,-100.00,NNW,328,7.0,11.0,82,0.00,,,0.01,0.000000,,2013-04-15 09:32:00,
2013-04-15 02:53:00,28.0,23.0,-100.00,NNW,337,7.0,12.0,82,0.00,,,0.01,0.000000,,2013-04-15 09:53:00,
2013-04-15 03:02:00,28.0,23.0,-100.00,NNW,337,7.0,12.0,82,0.00,,,0.01,0.000000,,2013-04-15 10:02:00,
2013-04-15 03:13:00,28.0,23.0,-100.00,NNW,337,7.0,12.0,82,0.00,,,0.01,0.000000,,2013-04-15 10:13:00,
2013-04-15 03:23:00,28.0,23.0,-100.00,NNW,337,7.0,12.0,82,0.00,,,0.01,0.000000,,2013-04-15 10:23:00,
2013-04-15 03:32:00,28.0,23.0,-100.00,NNW,337,7.0,12.0,82,0.00,,,0.01,0.000000,,2013-04-15 10:32:00,
2013-04-15 03:53:00,27.0,22.0,-100.00,NNW,346,5.0,11.0,82,0.00,,,0.01,0.000000,,2013-04-15 10:53:00,
2013-04-15 04:03:00,27.0,22.0,-100.00,NNW,346,5.0,11.0,82,0.00,,,0.01,0.000000,,2013-04-15 11:03:00,
2013-04-15 04:12:00,27.0,22.0,-100.00,NNW,346,5.0,11.0,82,0.00,,,0.01,0.000000,,2013-04-15 11:12:00,
2013-04-15 04:22:00,27.0,22.0,-100.00,NNW,346,5.0,11.0,82,0.00,,,0.01,0.000000,,2013-04-15 11:22:00,
2013-04-15 04:32:00,27.0,22.0,-100.00,NNW,346,5.0,11.0,82,0.00,,,0.01,0.000000,,2013-04-15 11:32:00,
2013-04-15 04:53:00,27.0,23.0,-100.00,NW,316,7.0,12.0,83,0.00,,,0.01,0.000000,,2013-04-15 11:53:00,
2013-04-15 05:03:00,27.0,23.0,-100.00,NW,316,7.0,12.0,83,0.00,,,0.01,0.000000,,2013-04-15 12:03:00,
2013-04-15 05:13:00,27.0,23.0,-100.00,NW,316,7.0,12.0,83,0.00,,,0.01,0.000000,,2013-04-15 12:13:00,
2013-04-15 05:22:00,27.0,23.0,-100.00,NW,316,7.0,12.0,83,0.00,,,0.01,0.000000,,2013-04-15 12:22:00,
2013-04-15 05:32:00,27.0,23.0,-100.00,NW,316,7.0,12.0,83,0.00,,,0.01,0.000000,,2013-04-15 12:32:00,
2013-04-15 05:53:00,27.0,24.0,-100.00,NW,326,4.0,9.0,88,0.00,,,0.01,0.000000,,2013-04-15 12:53:00,
2013-04-15 06:03:00,27.0,24.0,-100.00,NW,326,4.0,9.0,88,0.00,,,0.01,0.000000,,2013-04-15 13:03:00,
2013-04-15 06:12:00,27.0,24.0,-100.00,NW,326,4.0,9.0,88,0.00,,,0.01,0.000000,,2013-04-15 13:12:00,
2013-04-15 06:22:00,27.0,24.0,-100.00,NW,326,4.0,9.0,88,0.00,,,0.01,0.000000,,2013-04-15 13:22:00,
2013-04-15 06:32:00,27.0,24.0,-100.00,NW,326,4.0,9.0,88,0.00,,,0.01,0.000000,,2013-04-15 13:32:00,
2013-04-15 06:53:00,27.0,24.0,-100.00,NNW,333,4.0,8.0,89,0.00,,,0.01,1.000000,,2013-04-15 13:53:00,
2013-04-15 07:04:00,27.0,24.0,-100.00,NNW,333,4.0,8.0,89,0.00,,,0.01,1.000000,,2013-04-15 14:04:00,
2013-04-15 07:12:00,27.0,24.0,-100.00,NNW,333,4.0,8.0,89,0.00,,,0.01,1.000000,,2013-04-15 14:12:00,
2013-04-15 07:22:00,27.0,24.0,-100.00,NNW,333,4.0,8.0,89,0.00,,,0.01,1.000000,,2013-04-15 14:22:00,
2013-04-15 07:32:00,27.0,24.0,-100.00,NNW,333,4.0,8.0,89,0.00,,,0.01,1.000000,,2013-04-15 14:32:00,
2013-04-15 07:54:00,28.0,26.0,-100.00,North,3,2.0,7.0,91,0.00,,,0.01,38.000000,,2013-04-15 14:54:00,
2013-04-15 08:03:00,28.0,26.0,-100.00,North,3,2.0,7.0,91,0.00,,,0.01,38.000000,,2013-04-15 15:03:00,
2013-04-15 08:12:00,28.0,26.0,-100.00,North,3,2.0,7.0,91,0.00,,,0.01,38.000000,,2013-04-15 15:12:00,
2013-04-15 08:22:00,28.0,26.0,-100.00,North,3,2.0,7.0,91,0.00,,,0.01,38.000000,,2013-04-15 15:22:00,
2013-04-15 08:33:00,28.0,26.0,-100.00,North,3,2.0,7.0,91,0.00,,,0.01,38.000000,,2013-04-15 15:33:00,
2013-04-15 08:54:00,30.0,25.0,-100.00,NNW,336,4.0,8.0,83,0.00,,,0.01,157.000000,,2013-04-15 15:54:00,
2013-04-15 09:13:00,30.0,25.0,-100.00,NNW,336,4.0,8.0,83,0.00,,,0.01,157.000000,,2013-04-15 16:13:00,
2013-04-15 09:23:00,30.0,25.0,-100.00,NNW,336,4.0,8.0,83,0.00,,,0.01,157.000000,,2013-04-15 16:23:00,
2013-04-15 09:32:00,30.0,25.0,-100.00,NNW,336,4.0,8.0,83,0.00,,,0.01,157.000000,,2013-04-15 16:32:00,
2013-04-15 09:54:00,31.0,25.0,-100.00,NNE,29,3.0,6.0,77,0.01,,,0.02,117.000000,,2013-04-15 16:54:00,
2013-04-15 10:03:00,31.0,25.0,-100.00,NNE,29,3.0,6.0,77,0.01,,,0.02,117.000000,,2013-04-15 17:03:00,
2013-04-15 10:21:00,31.0,25.0,-100.00,NNE,29,3.0,6.0,77,0.01,,,0.02,117.000000,,2013-04-15 17:21:00,
2013-04-15 10:32:00,31.0,25.0,-100.00,NNE,29,3.0,6.0,77,0.01,,,0.02,117.000000,,2013-04-15 17:32:00,
2013-04-15 10:52:00,32.0,29.0,-100.00,East,94,3.0,6.0,87,0.00,,,0.02,164.000000,,2013-04-15 17:52:00,
2013-04-15 11:03:00,32.0,29.0,-100.00,East,94,3.0,6.0,87,0.00,,,0.02,164.000000,,2013-04-15 18:03:00,
2013-04-15 11:12:00,32.0,29.0,-100.00,East,94,3.0,6.0,87,0.00,,,0.02,164.000000,,2013-04-15 18:12:00,
2013-04-15 11:23:00,32.0,29.0,-100.00,East,94,3.0,6.0,87,0.00,,,0.02,164.000000,,2013-04-15 18:23:00,
2013-04-15 11:32:00,32.0,29.0,-100.00,East,94,3.0,6.0,87,0.00,,,0.02,164.000000,,2013-04-15 18:32:00,
2013-04-15 11:52:00,35.0,22.0,-100.00,ENE,64,6.0,12.0,58,0.00,,,0.02,507.000000,,2013-04-15 18:52:00,
2013-04-15 12:02:00,35.0,22.0,-100.00,ENE,64,6.0,12.0,58,0.00,,,0.02,507.000000,,2013-04-15 19:02:00,
2013-04-15 12:12:00,35.0,22.0,-100.00,ENE,64,6.0,12.0,58,0.00,,,0.02,507.000000,,2013-04-15 19:12:00,
2013-04-15 12:22:00,35.0,22.0,-100.00,ENE,64,6.0,12.0,58,0.00,,,0.02,507.000000,,2013-04-15 19:22:00,
2013-04-15 12:33:00,35.0,22.0,-100.00,ENE,64,6.0,12.0,58,0.00,,,0.02,507.000000,,2013-04-15 19:33:00,
2013-04-15 13:01:00,38.0,27.0,-100.00,NE,41,7.0,14.0,65,0.00,,,0.02,397.000000,,2013-04-15 20:01:00,
2013-04-15 13:11:00,38.0,27.0,-100.00,NE,41,7.0,14.0,65,0.00,,,0.02,397.000000,,2013-04-15 20:11:00,
2013-04-15 13:22:00,38.0,27.0,-100.00,NE,41,7.0,14.0,65,0.00,,,0.02,397.000000,,2013-04-15 20:22:00,
2013-04-15 13:32:00,38.0,27.0,-100.00,NE,41,7.0,14.0,65,0.00,,,0.02,397.000000,,2013-04-15 20:32:00,
2013-04-15 13:52:00,34.0,23.0,-100.00,NNW,338,6.0,17.0,64,0.00,,,0.02,368.000000,,2013-04-15 20:52:00,
2013-04-15 14:02:00,34.0,23.0,-100.00,NNW,338,6.0,17.0,64,0.00,,,0.02,368.000000,,2013-04-15 21:02:00,
2013-04-15 14:12:00,34.0,23.0,-100.00,NNW,338,6.0,17.0,64,0.00,,,0.02,368.000000,,2013-04-15 21:12:00,
2013-04-15 14:22:00,34.0,23.0,-100.00,NNW,338,6.0,17.0,64,0.00,,,0.02,368.000000,,2013-04-15 21:22:00,
2013-04-15 14:32:00,34.0,23.0,-100.00,NNW,338,6.0,17.0,64,0.00,,,0.02,368.000000,,2013-04-15 21:32:00,
2013-04-15 14:53:00,30.0,27.0,-100.00,NNW,328,8.0,16.0,89,0.00,,,0.02,360.000000,,2013-04-15 21:53:00,
2013-04-15 15:02:00,30.0,27.0,-100.00,NNW,328,8.0,16.0,89,0.00,,,0.02,360.000000,,2013-04-15 22:02:00,
2013-04-15 15:13:00,30.0,27.0,-100.00,NNW,328,8.0,16.0,89,0.00,,,0.02,360.000000,,2013-04-15 22:13:00,
2013-04-15 15:22:00,30.0,27.0,-100.00,NNW,328,8.0,16.0,89,0.00,,,0.02,360.000000,,2013-04-15 22:22:00,
2013-04-15 15:32:00,30.0,27.0,-100.00,NNW,328,8.0,16.0,89,0.00,,,0.02,360.000000,,2013-04-15 22:32:00,
2013-04-15 15:52:00,33.0,30.0,-100.00,North,6,5.0,15.0,87,0.02,,,0.04,322.000000,,2013-04-15 22:52:00,
2013-04-15 16:02:00,33.0,30.0,-100.00,North,6,5.0,15.0,87,0.02,,,0.04,322.000000,,2013-04-15 23:02:00,
2013-04-15 16:12:00,33.0,30.0,-100.00,North,6,5.0,15.0,87,0.02,,,0.04,322.000000,,2013-04-15 23:12:00,
2013-04-15 16:22:00,33.0,30.0,-100.00,North,6,5.0,15.0,87,0.02,,,0.04,322.000000,,2013-04-15 23:22:00,
2013-04-15 16:32:00,33.0,30.0,-100.00,North,6,5.0,15.0,87,0.02,,,0.04,322.000000,,2013-04-15 23:32:00,
2013-04-15 16:52:00,32.0,28.0,-100.00,NNW,347,8.0,17.0,86,0.00,,,0.04,238.000000,,2013-04-15 23:52:00,
2013-04-15 17:02:00,32.0,28.0,-100.00,NNW,347,8.0,17.0,86,0.00,,,0.04,238.000000,,2013-04-16 00:02:00,
2013-04-15 17:12:00,32.0,28.0,-100.00,NNW,347,8.0,17.0,86,0.00,,,0.04,238.000000,,2013-04-16 00:12:00,
2013-04-15 17:22:00,32.0,28.0,-100.00,NNW,347,8.0,17.0,86,0.00,,,0.04,238.000000,,2013-04-16 00:22:00,
2013-04-15 17:31:00,32.0,28.0,-100.00,NNW,347,8.0,17.0,86,0.00,,,0.04,238.000000,,2013-04-16 00:31:00,
2013-04-15 17:52:00,34.0,29.0,-100.00,North,8,7.0,18.0,83,0.00,,,0.03,178.000000,,2013-04-16 00:52:00,
2013-04-15 18:02:00,34.0,29.0,-100.00,North,8,7.0,18.0,83,0.00,,,0.03,178.000000,,2013-04-16 01:02:00,
2013-04-15 18:12:00,34.0,29.0,-100.00,North,8,7.0,18.0,83,0.00,,,0.03,178.000000,,2013-04-16 01:12:00,
2013-04-15 18:22:00,34.0,29.0,-100.00,North,8,7.0,18.0,83,0.00,,,0.03,178.000000,,2013-04-16 01:22:00,
2013-04-15 18:32:00,34.0,29.0,-100.00,North,8,7.0,18.0,83,0.00,,,0.03,178.000000,,2013-04-16 01:32:00,
2013-04-15 18:52:00,30.0,28.0,-100.00,North,6,4.0,19.0,91,0.00,,,0.03,109.000000,,2013-04-16 01:52:00,
2013-04-15 19:02:00,30.0,28.0,-100.00,North,6,4.0,19.0,91,0.00,,,0.03,109.000000,,2013-04-16 02:02:00,
2013-04-15 19:12:00,30.0,28.0,-100.00,North,6,4.0,19.0,91,0.00,,,0.03,109.000000,,2013-04-16 02:12:00,
2013-04-15 19:22:00,30.0,28.0,-100.00,North,6,4.0,19.0,91,0.00,,,0.03,109.000000,,2013-04-16 02:22:00,
2013-04-15 19:32:00,30.0,28.0,-100.00,North,6,4.0,19.0,91,0.00,,,0.03,109.000000,,2013-04-16 02:32:00,
2013-04-15 19:52:00,30.0,25.0,-100.00,North,5,5.0,16.0,81,0.00,,,0.03,38.000000,,2013-04-16 02:52:00,
2013-04-15 20:02:00,30.0,25.0,-100.00,North,5,5.0,16.0,81,0.00,,,0.03,38.000000,,2013-04-16 03:02:00,
2013-04-15 20:12:00,30.0,25.0,-100.00,North,5,5.0,16.0,81,0.00,,,0.03,38.000000,,2013-04-16 03:12:00,
2013-04-15 20:22:00,30.0,25.0,-100.00,North,5,5.0,16.0,81,0.00,,,0.03,38.000000,,2013-04-16 03:22:00,
2013-04-15 20:32:00,30.0,25.0,-100.00,North,5,5.0,16.0,81,0.00,,,0.03,38.000000,,2013-04-16 03:32:00,
2013-04-15 20:52:00,29.0,25.0,-100.00,North,3,4.0,8.0,84,0.00,,,0.03,2.000000,,2013-04-16 03:52:00,
2013-04-15 21:03:00,29.0,25.0,-100.00,North,3,4.0,8.0,84,0.00,,,0.03,2.000000,,2013-04-16 04:03:00,
2013-04-15 21:12:00,29.0,25.0,-100.00,North,3,4.0,8.0,84,0.00,,,0.03,2.000000,,2013-04-16 04:12:00,
2013-04-15 21:23:00,29.0,25.0,-100.00,North,3,4.0,8.0,84,0.00,,,0.03,2.000000,,2013-04-16 04:23:00,
2013-04-15 21:32:00,29.0,25.0,-100.00,North,3,4.0,8.0,84,0.00,,,0.03,2.000000,,2013-04-16 04:32:00,
2013-04-15 21:53:00,29.0,25.0,-100.00,North,357,2.0,10.0,83,0.00,,,0.03,0.000000,,2013-04-16 04:53:00,
2013-04-15 22:02:00,29.0,25.0,-100.00,North,357,2.0,10.0,83,0.00,,,0.03,0.000000,,2013-04-16 05:02:00,
2013-04-15 22:12:00,29.0,25.0,-100.00,North,357,2.0,10.0,83,0.00,,,0.03,0.000000,,2013-04-16 05:12:00,
2013-04-15 22:22:00,29.0,25.0,-100.00,North,357,2.0,10.0,83,0.00,,,0.03,0.000000,,2013-04-16 05:22:00,
2013-04-15 22:32:00,29.0,25.0,-100.00,North,357,2.0,10.0,83,0.00,,,0.03,0.000000,,2013-04-16 05:32:00,
2013-04-15 22:52:00,30.0,23.0,-100.00,North,5,3.0,7.0,76,0.00,,,0.03,0.000000,,2013-04-16 05:52:00,
2013-04-15 23:02:00,30.0,23.0,-100.00,North,5,3.0,7.0,76,0.00,,,0.03,0.000000,,2013-04-16 06:02:00,
2013-04-15 23:12:00,30.0,23.0,-100.00,North,5,3.0,7.0,76,0.00,,,0.03,0.000000,,2013-04-16 06:12:00,
2013-04-15 23:22:00,30.0,23.0,-100.00,North,5,3.0,7.0,76,0.00,,,0.03,0.000000,,2013-04-16 06:22:00,
2013-04-15 23:32:00,30.0,23.0,-100.00,North,5,3.0,7.0,76,0.00,,,0.03,0.000000,,2013-04-16 06:32:00,
2013-04-15 23:52:00,29.0,24.0,-100.00,North,355,3.0,6.0,81,0.00,,,0.03,0.000000,,2013-04-16 06:52:00,